| time (UTC) | temp C | wind direction | speed KPH | gust KPH | rain 1hr cm | rain 24hr cm | rain mn cm | humidity % | barometer mb |
| 20260507191008 | 25 | 165 | 1.6 | 1.6 | 0.00 | 0.00 | 0.00 | 72 | 1019.2 |
| 20260507190506 | 25 | 155 | 1.6 | 1.6 | 0.00 | 0.00 | 0.00 | 73 | 1019.3 |
| 20260507190005 | 25 | 229 | 6.4 | 6.4 | 0.00 | 0.00 | 0.00 | 72 | 1019.1 |
| 20260507185502 | 25 | 215 | 3.2 | 6.4 | 0.00 | 0.00 | 0.00 | 72 | 1019.2 |
| 20260507184958 | 25 | 256 | 4.8 | 6.4 | 0.00 | 0.00 | 0.00 | 71 | 1019.1 |
| 20260507184456 | 26 | 233 | 6.4 | 9.7 | 0.00 | 0.00 | 0.00 | 71 | 1019.0 |
| 20260507183954 | 26 | 218 | 3.2 | 6.4 | 0.00 | 0.00 | 0.00 | 69 | 1019.1 |
| 20260507183450 | 26 | 268 | 4.8 | 6.4 | 0.00 | 0.00 | 0.00 | 70 | 1019.0 |
| 20260507182947 | 25 | 206 | 1.6 | 6.4 | 0.00 | 0.00 | 0.00 | 72 | 1019.2 |
| 20260507182443 | 26 | 58 | 1.6 | 4.8 | 0.00 | 0.00 | 0.00 | 70 | 1019.0 |
| 20260507181940 | 26 | 232 | 3.2 | 4.8 | 0.00 | 0.00 | 0.00 | 70 | 1018.9 |
| 20260507181436 | 25 | 169 | 1.6 | 4.8 | 0.00 | 0.00 | 0.00 | 70 | 1019.0 |
| 20260507180933 | 25 | 140 | 0.0 | 1.6 | 0.00 | 0.00 | 0.00 | 72 | 1018.9 |
| 20260507180430 | 25 | 257 | 3.2 | 3.2 | 0.00 | 0.00 | 0.00 | 73 | 1018.9 |
| 20260507175925 | 24 | 184 | 3.2 | 3.2 | 0.00 | 0.00 | 0.00 | 75 | 1018.9 |
| 20260507175422 | 24 | 205 | 3.2 | 3.2 | 0.00 | 0.00 | 0.00 | 77 | 1018.7 |
| 20260507174920 | 23 | 95 | 0.0 | 1.6 | 0.00 | 0.00 | 0.00 | 78 | 1018.9 |
| 20260507174417 | 23 | 95 | 0.0 | 0.0 | 0.00 | 0.00 | 0.00 | 79 | 1018.9 |
| 20260507173915 | 23 | 95 | 0.0 | 1.6 | 0.00 | 0.00 | 0.00 | 78 | 1018.7 |
| 20260507173412 | 23 | 95 | 0.0 | 1.6 | 0.00 | 0.00 | 0.00 | 79 | 1018.7 |
| 20260507172908 | 23 | 95 | 0.0 | 0.0 | 0.00 | 0.00 | 0.00 | 80 | 1018.9 |
| 20260507172405 | 23 | 95 | 0.0 | 1.6 | 0.00 | 0.00 | 0.00 | 79 | 1018.5 |
| 20260507171901 | 23 | 95 | 0.0 | 1.6 | 0.00 | 0.00 | 0.00 | 78 | 1018.6 |
| 20260507171357 | 23 | 94 | 0.0 | 0.0 | 0.00 | 0.00 | 0.00 | 80 | 1018.7 |
| 20260507170855 | 22 | 95 | 0.0 | 0.0 | 0.00 | 0.00 | 0.00 | 83 | 1018.5 |
| 20260507170351 | 21 | 95 | 0.0 | 0.0 | 0.00 | 0.00 | 0.00 | 86 | 1018.5 |
| 20260507165847 | 21 | 95 | 0.0 | 1.6 | 0.00 | 0.00 | 0.00 | 86 | 1018.2 |
| 20260507165343 | 21 | 106 | 1.6 | 1.6 | 0.00 | 0.00 | 0.00 | 85 | 1018.0 |
| 20260507164839 | 20 | 106 | 0.0 | 1.6 | 0.00 | 0.00 | 0.00 | 87 | 1018.0 |
| 20260507164336 | 20 | 106 | 0.0 | 1.6 | 0.00 | 0.00 | 0.00 | 88 | 1018.0 |
| 20260507163834 | 20 | 107 | 0.0 | 1.6 | 0.00 | 0.00 | 0.00 | 89 | 1017.9 |
| 20260507163331 | 19 | 107 | 0.0 | 1.6 | 0.00 | 0.00 | 0.00 | 90 | 1017.9 |
| 20260507162827 | 19 | 107 | 0.0 | 1.6 | 0.00 | 0.00 | 0.00 | 91 | 1017.8 |
| 20260507162323 | 18 | 107 | 0.0 | 0.0 | 0.00 | 0.00 | 0.00 | 91 | 1017.9 |
| 20260507161820 | 18 | 107 | 0.0 | 1.6 | 0.00 | 0.00 | 0.00 | 91 | 1017.6 |
| 20260507161317 | 18 | 107 | 0.0 | 0.0 | 0.00 | 0.00 | 0.00 | 91 | 1017.5 |
| 20260507160813 | 18 | 107 | 0.0 | 1.6 | 0.00 | 0.00 | 0.00 | 91 | 1017.4 |
| 20260507160309 | 18 | 107 | 1.6 | 3.2 | 0.00 | 0.00 | 0.00 | 91 | 1017.4 |
| 20260507155805 | 18 | 107 | 0.0 | 3.2 | 0.00 | 0.00 | 0.00 | 91 | 1017.5 |
| 20260507155301 | 18 | 107 | 0.0 | 1.6 | 0.00 | 0.00 | 0.00 | 91 | 1017.3 |
| 20260507154758 | 18 | 107 | 1.6 | 1.6 | 0.00 | 0.00 | 0.00 | 91 | 1017.2 |
| 20260507154256 | 18 | 106 | 0.0 | 1.6 | 0.00 | 0.00 | 0.00 | 91 | 1017.2 |
| 20260507153752 | 18 | 106 | 0.0 | 1.6 | 0.00 | 0.00 | 0.00 | 91 | 1017.4 |
| 20260507153248 | 18 | 106 | 0.0 | 0.0 | 0.00 | 0.00 | 0.00 | 91 | 1017.2 |
| 20260507152745 | 18 | 106 | 0.0 | 1.6 | 0.00 | 0.00 | 0.00 | 91 | 1017.1 |
| 20260507152242 | 18 | 106 | 1.6 | 1.6 | 0.00 | 0.00 | 0.00 | 91 | 1017.2 |
| 20260507151737 | 18 | 106 | 1.6 | 1.6 | 0.00 | 0.00 | 0.00 | 91 | 1017.2 |
| 20260507151234 | 18 | 97 | 1.6 | 3.2 | 0.00 | 0.00 | 0.00 | 91 | 1017.2 |
| 20260507150731 | 18 | 109 | 1.6 | 1.6 | 0.00 | 0.00 | 0.00 | 91 | 1017.0 |
| 20260507150228 | 18 | 109 | 0.0 | 1.6 | 0.00 | 0.00 | 0.00 | 91 | 1017.1 |
| 20260507145724 | 18 | 111 | 0.0 | 0.0 | 0.00 | 0.00 | 0.00 | 90 | 1017.0 |
| 20260507145220 | 18 | 109 | 1.6 | 3.2 | 0.00 | 0.00 | 0.00 | 90 | 1016.9 |
| 20260507144717 | 18 | 82 | 1.6 | 1.6 | 0.00 | 0.00 | 0.00 | 90 | 1016.7 |
| 20260507144215 | 19 | 82 | 0.0 | 1.6 | 0.00 | 0.00 | 0.00 | 90 | 1016.7 |
| 20260507143712 | 19 | 82 | 1.6 | 1.6 | 0.00 | 0.00 | 0.00 | 89 | 1016.6 |
| 20260507143209 | 19 | 82 | 0.0 | 1.6 | 0.00 | 0.00 | 0.00 | 89 | 1016.6 |
| 20260507142704 | 20 | 81 | 0.0 | 1.6 | 0.00 | 0.00 | 0.00 | 89 | 1016.5 |
| 20260507142201 | 20 | 81 | 1.6 | 1.6 | 0.00 | 0.00 | 0.00 | 89 | 1016.8 |
| 20260507141657 | 20 | 89 | 3.2 | 3.2 | 0.00 | 0.00 | 0.00 | 89 | 1016.5 |
| 20260507141154 | 20 | 74 | 1.6 | 3.2 | 0.00 | 0.00 | 0.00 | 89 | 1016.7 |
| 20260507140651 | 20 | 119 | 1.6 | 1.6 | 0.00 | 0.00 | 0.00 | 89 | 1016.8 |
| 20260507140149 | 20 | 119 | 0.0 | 0.0 | 0.00 | 0.00 | 0.00 | 89 | 1016.7 |
| 20260507135646 | 20 | 119 | 0.0 | 1.6 | 0.00 | 0.00 | 0.00 | 89 | 1017.0 |
| 20260507135143 | 20 | 119 | 0.0 | 1.6 | 0.00 | 0.00 | 0.00 | 89 | 1016.7 |
| 20260507134639 | 20 | 119 | 0.0 | 1.6 | 0.00 | 0.00 | 0.00 | 89 | 1016.8 |
| 20260507134135 | 20 | 119 | 0.0 | 0.0 | 0.00 | 0.00 | 0.00 | 89 | 1016.8 |
| 20260507133631 | 20 | 119 | 0.0 | 1.6 | 0.00 | 0.00 | 0.00 | 89 | 1016.7 |
| 20260507133129 | 20 | 119 | 0.0 | 1.6 | 0.00 | 0.00 | 0.00 | 89 | 1016.9 |
| 20260507132626 | 20 | 119 | 1.6 | 1.6 | 0.00 | 0.00 | 0.00 | 89 | 1016.6 |
| 20260507132122 | 20 | 119 | 0.0 | 1.6 | 0.00 | 0.00 | 0.00 | 89 | 1016.8 |
| 20260507131619 | 20 | 119 | 1.6 | 1.6 | 0.00 | 0.00 | 0.00 | 89 | 1016.8 |
| 20260507131116 | 20 | 119 | 0.0 | 1.6 | 0.00 | 0.00 | 0.00 | 89 | 1016.7 |
| 20260507130613 | 20 | 119 | 0.0 | 0.0 | 0.00 | 0.00 | 0.00 | 89 | 1016.8 |
| 20260507130111 | 20 | 119 | 1.6 | 1.6 | 0.00 | 0.00 | 0.00 | 89 | 1016.9 |
| 20260507125610 | 20 | 119 | 1.6 | 1.6 | 0.00 | 0.00 | 0.00 | 89 | 1016.9 |
| 20260507125106 | 20 | 119 | 0.0 | 1.6 | 0.00 | 0.00 | 0.00 | 88 | 1016.9 |
| 20260507124603 | 20 | 119 | 1.6 | 1.6 | 0.00 | 0.00 | 0.00 | 88 | 1017.1 |
| 20260507124101 | 20 | 119 | 1.6 | 1.6 | 0.00 | 0.00 | 0.00 | 88 | 1017.2 |
| 20260507123559 | 20 | 119 | 1.6 | 1.6 | 0.00 | 0.00 | 0.00 | 88 | 1017.0 |
| 20260507123055 | 20 | 119 | 1.6 | 1.6 | 0.00 | 0.00 | 0.00 | 88 | 1017.2 |
| 20260507122550 | 20 | 119 | 0.0 | 3.2 | 0.00 | 0.00 | 0.00 | 88 | 1017.3 |
| 20260507122046 | 20 | 120 | 1.6 | 1.6 | 0.00 | 0.00 | 0.00 | 88 | 1017.3 |
| 20260507121542 | 20 | 120 | 0.0 | 1.6 | 0.00 | 0.00 | 0.00 | 88 | 1017.4 |
| 20260507121038 | 20 | 120 | 1.6 | 1.6 | 0.00 | 0.00 | 0.00 | 88 | 1017.4 |
| 20260507120534 | 20 | 121 | 1.6 | 1.6 | 0.00 | 0.00 | 0.00 | 88 | 1017.5 |
| 20260507120032 | 20 | 121 | 0.0 | 1.6 | 0.00 | 0.00 | 0.00 | 88 | 1017.4 |
| 20260507115528 | 20 | 121 | 0.0 | 1.6 | 0.00 | 0.00 | 0.00 | 88 | 1017.3 |
| 20260507115024 | 20 | 121 | 0.0 | 1.6 | 0.00 | 0.00 | 0.00 | 88 | 1017.4 |
| 20260507114520 | 20 | 136 | 1.6 | 1.6 | 0.00 | 0.00 | 0.00 | 87 | 1017.5 |
| 20260507114017 | 20 | 136 | 1.6 | 1.6 | 0.00 | 0.00 | 0.00 | 87 | 1017.6 |
| 20260507113514 | 21 | 138 | 0.0 | 1.6 | 0.00 | 0.00 | 0.00 | 87 | 1017.5 |
| 20260507113012 | 21 | 138 | 0.0 | 0.0 | 0.00 | 0.00 | 0.00 | 87 | 1017.7 |
| 20260507112509 | 21 | 139 | 0.0 | 0.0 | 0.00 | 0.00 | 0.00 | 87 | 1017.6 |
| 20260507112006 | 21 | 139 | 0.0 | 0.0 | 0.00 | 0.00 | 0.00 | 86 | 1017.7 |
| 20260507111504 | 21 | 139 | 1.6 | 1.6 | 0.00 | 0.00 | 0.00 | 86 | 1017.8 |
| 20260507110959 | 21 | 139 | 0.0 | 0.0 | 0.00 | 0.00 | 0.00 | 86 | 1017.8 |
| 20260507110455 | 21 | 139 | 0.0 | 1.6 | 0.00 | 0.00 | 0.00 | 86 | 1017.9 |
| 20260507105952 | 21 | 135 | 3.2 | 3.2 | 0.00 | 0.00 | 0.00 | 86 | 1018.0 |
| 20260507105449 | 21 | 146 | 1.6 | 1.6 | 0.00 | 0.00 | 0.00 | 86 | 1017.9 |
| 20260507104946 | 21 | 147 | 1.6 | 3.2 | 0.00 | 0.00 | 0.00 | 86 | 1018.1 |
| 20260507104443 | 21 | 149 | 1.6 | 3.2 | 0.00 | 0.00 | 0.00 | 85 | 1018.0 |
| 20260507103938 | 21 | 148 | 3.2 | 4.8 | 0.00 | 0.00 | 0.00 | 86 | 1018.2 |
| 20260507103435 | 21 | 121 | 0.0 | 0.0 | 0.00 | 0.00 | 0.00 | 86 | 1018.1 |
| 20260507102931 | 21 | 122 | 0.0 | 1.6 | 0.00 | 0.00 | 0.00 | 86 | 1018.0 |
| 20260507102428 | 21 | 122 | 0.0 | 1.6 | 0.00 | 0.00 | 0.00 | 86 | 1018.1 |
| 20260507101925 | 21 | 121 | 1.6 | 3.2 | 0.00 | 0.00 | 0.00 | 86 | 1018.3 |
| 20260507101420 | 21 | 155 | 3.2 | 3.2 | 0.00 | 0.00 | 0.00 | 86 | 1018.1 |
| 20260507100916 | 21 | 155 | 0.0 | 1.6 | 0.00 | 0.00 | 0.00 | 86 | 1018.5 |
| 20260507100414 | 21 | 155 | 0.0 | 0.0 | 0.00 | 0.00 | 0.00 | 86 | 1018.3 |
| 20260507095912 | 21 | 155 | 0.0 | 3.2 | 0.00 | 0.00 | 0.00 | 85 | 1018.4 |
| 20260507095409 | 21 | 155 | 1.6 | 1.6 | 0.00 | 0.00 | 0.00 | 85 | 1018.4 |
| 20260507094906 | 21 | 155 | 3.2 | 3.2 | 0.00 | 0.00 | 0.00 | 85 | 1018.3 |
| 20260507094403 | 21 | 155 | 1.6 | 1.6 | 0.00 | 0.00 | 0.00 | 85 | 1018.4 |
| 20260507093859 | 21 | 155 | 0.0 | 1.6 | 0.00 | 0.00 | 0.00 | 85 | 1018.5 |
| 20260507093358 | 21 | 155 | 0.0 | 1.6 | 0.00 | 0.00 | 0.00 | 84 | 1018.5 |
| 20260507092856 | 21 | 155 | 1.6 | 1.6 | 0.00 | 0.00 | 0.00 | 85 | 1018.6 |
| 20260507092351 | 21 | 155 | 1.6 | 1.6 | 0.00 | 0.00 | 0.00 | 85 | 1018.9 |
| 20260507091848 | 21 | 155 | 0.0 | 1.6 | 0.00 | 0.00 | 0.00 | 85 | 1018.7 |
| 20260507091345 | 21 | 155 | 1.6 | 3.2 | 0.00 | 0.00 | 0.00 | 85 | 1018.6 |
| 20260507090840 | 21 | 155 | 0.0 | 0.0 | 0.00 | 0.00 | 0.00 | 85 | 1018.9 |
| 20260507090337 | 21 | 155 | 0.0 | 1.6 | 0.00 | 0.00 | 0.00 | 85 | 1018.6 |
| 20260507085834 | 21 | 155 | 1.6 | 3.2 | 0.00 | 0.00 | 0.00 | 85 | 1018.9 |
| 20260507085331 | 21 | 155 | 0.0 | 1.6 | 0.00 | 0.00 | 0.00 | 85 | 1018.8 |
| 20260507084828 | 21 | 154 | 3.2 | 3.2 | 0.00 | 0.00 | 0.00 | 85 | 1018.6 |
| 20260507084324 | 21 | 155 | 1.6 | 1.6 | 0.00 | 0.00 | 0.00 | 85 | 1018.6 |
| 20260507083822 | 21 | 155 | 1.6 | 1.6 | 0.00 | 0.00 | 0.00 | 85 | 1018.8 |
| 20260507083318 | 21 | 155 | 0.0 | 1.6 | 0.00 | 0.00 | 0.00 | 85 | 1018.8 |
| 20260507082814 | 21 | 155 | 0.0 | 3.2 | 0.00 | 0.00 | 0.00 | 85 | 1018.9 |
| 20260507082310 | 21 | 155 | 3.2 | 3.2 | 0.00 | 0.00 | 0.00 | 85 | 1018.6 |
| 20260507081808 | 21 | 154 | 3.2 | 3.2 | 0.00 | 0.00 | 0.00 | 86 | 1018.8 |
| 20260507081303 | 21 | 155 | 1.6 | 3.2 | 0.00 | 0.00 | 0.00 | 86 | 1018.8 |
| 20260507080800 | 21 | 154 | 1.6 | 1.6 | 0.00 | 0.00 | 0.00 | 86 | 1018.9 |
| 20260507080257 | 21 | 154 | 0.0 | 1.6 | 0.00 | 0.00 | 0.00 | 85 | 1018.8 |
| 20260507075752 | 21 | 154 | 1.6 | 3.2 | 0.00 | 0.00 | 0.00 | 85 | 1018.7 |
| 20260507075248 | 21 | 154 | 1.6 | 1.6 | 0.00 | 0.00 | 0.00 | 85 | 1018.7 |
| 20260507074744 | 21 | 154 | 0.0 | 0.0 | 0.00 | 0.00 | 0.00 | 85 | 1018.7 |
| 20260507074243 | 21 | 154 | 1.6 | 3.2 | 0.00 | 0.00 | 0.00 | 84 | 1018.6 |
| 20260507073739 | 21 | 155 | 1.6 | 3.2 | 0.00 | 0.00 | 0.00 | 84 | 1018.6 |
| 20260507073236 | 22 | 154 | 1.6 | 3.2 | 0.00 | 0.00 | 0.00 | 84 | 1018.6 |
| 20260507072734 | 22 | 150 | 3.2 | 4.8 | 0.00 | 0.00 | 0.00 | 84 | 1018.6 |
| 20260507072231 | 22 | 150 | 0.0 | 1.6 | 0.00 | 0.00 | 0.00 | 84 | 1018.5 |
| 20260507071728 | 22 | 150 | 0.0 | 0.0 | 0.00 | 0.00 | 0.00 | 83 | 1018.5 |
| 20260507071224 | 22 | 150 | 0.0 | 0.0 | 0.00 | 0.00 | 0.00 | 83 | 1018.6 |
| 20260507070721 | 22 | 150 | 1.6 | 1.6 | 0.00 | 0.00 | 0.00 | 83 | 1018.4 |
| 20260507070218 | 22 | 150 | 0.0 | 1.6 | 0.00 | 0.00 | 0.00 | 83 | 1018.4 |
| 20260507065715 | 22 | 149 | 0.0 | 1.6 | 0.00 | 0.00 | 0.00 | 82 | 1018.3 |
| 20260507065212 | 22 | 143 | 1.6 | 3.2 | 0.00 | 0.00 | 0.00 | 82 | 1018.2 |
| 20260507064709 | 22 | 143 | 1.6 | 1.6 | 0.00 | 0.00 | 0.00 | 82 | 1017.9 |
| 20260507064208 | 22 | 143 | 1.6 | 3.2 | 0.00 | 0.00 | 0.00 | 82 | 1018.0 |
| 20260507063705 | 22 | 143 | 0.0 | 1.6 | 0.00 | 0.00 | 0.00 | 82 | 1018.1 |
| 20260507063201 | 22 | 143 | 3.2 | 3.2 | 0.00 | 0.00 | 0.00 | 82 | 1017.9 |
| 20260507062658 | 22 | 148 | 3.2 | 4.8 | 0.00 | 0.00 | 0.00 | 82 | 1017.8 |
| 20260507062156 | 22 | 149 | 3.2 | 3.2 | 0.00 | 0.00 | 0.00 | 81 | 1017.9 |
| 20260507061654 | 22 | 151 | 3.2 | 4.8 | 0.00 | 0.00 | 0.00 | 81 | 1017.8 |
| 20260507061152 | 22 | 149 | 0.0 | 3.2 | 0.00 | 0.00 | 0.00 | 80 | 1017.6 |
| 20260507060649 | 23 | 148 | 0.0 | 4.8 | 0.00 | 0.00 | 0.00 | 80 | 1017.7 |
| 20260507060145 | 23 | 135 | 1.6 | 3.2 | 0.00 | 0.00 | 0.00 | 79 | 1017.5 |
| 20260507055641 | 23 | 152 | 1.6 | 3.2 | 0.00 | 0.00 | 0.00 | 78 | 1017.4 |
| 20260507055137 | 23 | 117 | 0.0 | 3.2 | 0.00 | 0.00 | 0.00 | 77 | 1017.6 |
| 20260507054633 | 23 | 117 | 1.6 | 3.2 | 0.00 | 0.00 | 0.00 | 76 | 1017.4 |
| 20260507054130 | 23 | 111 | 1.6 | 3.2 | 0.00 | 0.00 | 0.00 | 76 | 1017.4 |
| 20260507053628 | 23 | 50 | 1.6 | 3.2 | 0.00 | 0.00 | 0.00 | 75 | 1017.5 |
| 20260507053126 | 23 | 80 | 0.0 | 1.6 | 0.00 | 0.00 | 0.00 | 75 | 1017.2 |
| 20260507052624 | 23 | 76 | 1.6 | 1.6 | 0.00 | 0.00 | 0.00 | 75 | 1017.2 |
| 20260507052120 | 23 | 59 | 1.6 | 1.6 | 0.00 | 0.00 | 0.00 | 75 | 1017.1 |
| 20260507051618 | 23 | 8 | 4.8 | 4.8 | 0.00 | 0.00 | 0.00 | 75 | 1017.1 |
| 20260507051115 | 23 | 47 | 3.2 | 6.4 | 0.00 | 0.00 | 0.00 | 74 | 1016.9 |
| 20260507050611 | 23 | 322 | 3.2 | 4.8 | 0.00 | 0.00 | 0.00 | 74 | 1017.0 |
| 20260507050108 | 23 | 342 | 4.8 | 6.4 | 0.00 | 0.00 | 0.00 | 74 | 1016.8 |
| 20260507045605 | 23 | 7 | 1.6 | 3.2 | 0.00 | 0.00 | 0.00 | 74 | 1016.8 |
| 20260507045102 | 23 | 38 | 1.6 | 6.4 | 0.00 | 0.00 | 0.00 | 74 | 1017.0 |
| 20260507044558 | 23 | 350 | 3.2 | 9.7 | 0.00 | 0.00 | 0.00 | 74 | 1016.7 |
| 20260507044056 | 23 | 0 | 4.8 | 11.3 | 0.00 | 0.00 | 0.00 | 73 | 1016.7 |
| 20260507043551 | 23 | 36 | 3.2 | 9.7 | 0.00 | 0.00 | 0.00 | 73 | 1016.6 |
| 20260507043049 | 23 | 335 | 6.4 | 11.3 | 0.00 | 0.00 | 0.00 | 73 | 1016.6 |
| 20260507042544 | 24 | 343 | 9.7 | 11.3 | 0.00 | 0.00 | 0.00 | 73 | 1016.6 |
| 20260507042040 | 24 | 15 | 4.8 | 11.3 | 0.00 | 0.00 | 0.00 | 73 | 1016.5 |
| 20260507041537 | 24 | 347 | 8.0 | 14.5 | 0.00 | 0.00 | 0.00 | 73 | 1016.5 |
| 20260507041034 | 24 | 350 | 9.7 | 11.3 | 0.00 | 0.00 | 0.00 | 73 | 1016.4 |
| 20260507040531 | 24 | 305 | 4.8 | 6.4 | 0.00 | 0.00 | 0.00 | 73 | 1016.5 |
| 20260507040026 | 24 | 347 | 3.2 | 11.3 | 0.00 | 0.00 | 0.00 | 73 | 1016.4 |
| 20260507035523 | 24 | 21 | 4.8 | 6.4 | 0.00 | 0.00 | 0.00 | 73 | 1016.2 |
| 20260507035020 | 24 | 306 | 9.7 | 12.9 | 0.00 | 0.00 | 0.00 | 73 | 1016.1 |
| 20260507034517 | 24 | 333 | 4.8 | 14.5 | 0.00 | 0.00 | 0.00 | 73 | 1016.1 |
| 20260507034014 | 24 | 294 | 4.8 | 14.5 | 0.00 | 0.00 | 0.00 | 72 | 1015.9 |
| 20260507033512 | 24 | 319 | 8.0 | 12.9 | 0.00 | 0.00 | 0.00 | 72 | 1016.1 |
| 20260507033009 | 24 | 306 | 12.9 | 16.1 | 0.00 | 0.00 | 0.00 | 72 | 1016.0 |
| 20260507032506 | 24 | 328 | 6.4 | 12.9 | 0.00 | 0.00 | 0.00 | 73 | 1016.1 |
| 20260507032002 | 24 | 311 | 3.2 | 11.3 | 0.00 | 0.00 | 0.00 | 73 | 1015.8 |
| 20260507031458 | 24 | 359 | 8.0 | 11.3 | 0.00 | 0.00 | 0.00 | 73 | 1015.9 |
| 20260507030955 | 25 | 256 | 6.4 | 11.3 | 0.00 | 0.00 | 0.00 | 72 | 1015.7 |
| 20260507030452 | 24 | 80 | 3.2 | 11.3 | 0.00 | 0.00 | 0.00 | 73 | 1016.0 |
| 20260507025950 | 24 | 281 | 12.9 | 17.7 | 0.00 | 0.00 | 0.00 | 73 | 1016.0 |
| 20260507025447 | 25 | 343 | 11.3 | 12.9 | 0.00 | 0.00 | 0.00 | 72 | 1015.6 |
| 20260507024945 | 25 | 341 | 3.2 | 11.3 | 0.00 | 0.00 | 0.00 | 73 | 1015.6 |
| 20260507024442 | 25 | 289 | 11.3 | 14.5 | 0.00 | 0.00 | 0.00 | 72 | 1015.6 |
| 20260507023937 | 24 | 12 | 11.3 | 12.9 | 0.00 | 0.00 | 0.00 | 73 | 1015.7 |
| 20260507023434 | 24 | 346 | 6.4 | 12.9 | 0.00 | 0.00 | 0.00 | 73 | 1015.8 |
| 20260507022931 | 25 | 333 | 17.7 | 17.7 | 0.00 | 0.00 | 0.00 | 72 | 1015.5 |
| 20260507022429 | 24 | 301 | 6.4 | 9.7 | 0.00 | 0.00 | 0.00 | 73 | 1015.7 |
| 20260507021924 | 24 | 105 | 0.0 | 9.7 | 0.00 | 0.00 | 0.00 | 73 | 1015.7 |
| 20260507021419 | 25 | 325 | 9.7 | 16.1 | 0.00 | 0.00 | 0.00 | 72 | 1015.8 |
| 20260507020918 | 24 | 312 | 6.4 | 12.9 | 0.00 | 0.00 | 0.00 | 73 | 1015.7 |
| 20260507020414 | 24 | 325 | 8.0 | 11.3 | 0.00 | 0.00 | 0.00 | 73 | 1015.9 |
| 20260507015911 | 24 | 32 | 1.6 | 9.7 | 0.00 | 0.00 | 0.00 | 74 | 1016.0 |
| 20260507015409 | 25 | 328 | 9.7 | 16.1 | 0.00 | 0.00 | 0.00 | 73 | 1015.9 |
| 20260507014906 | 25 | 296 | 9.7 | 12.9 | 0.00 | 0.00 | 0.00 | 73 | 1015.9 |
| 20260507014402 | 25 | 226 | 3.2 | 11.3 | 0.00 | 0.00 | 0.00 | 73 | 1016.0 |
| 20260507013859 | 25 | 348 | 9.7 | 11.3 | 0.00 | 0.00 | 0.00 | 73 | 1016.0 |
| 20260507013356 | 25 | 331 | 11.3 | 14.5 | 0.00 | 0.00 | 0.00 | 72 | 1015.8 |
| 20260507012853 | 25 | 343 | 12.9 | 16.1 | 0.00 | 0.00 | 0.00 | 72 | 1015.8 |
| 20260507012349 | 25 | 325 | 12.9 | 12.9 | 0.00 | 0.00 | 0.00 | 72 | 1015.8 |
| 20260507011847 | 25 | 303 | 8.0 | 14.5 | 0.00 | 0.00 | 0.00 | 72 | 1015.9 |
| 20260507011344 | 25 | 256 | 6.4 | 16.1 | 0.00 | 0.00 | 0.00 | 72 | 1015.9 |
| 20260507010843 | 25 | 282 | 9.7 | 16.1 | 0.00 | 0.00 | 0.00 | 71 | 1015.8 |
| 20260507010339 | 25 | 351 | 8.0 | 14.5 | 0.00 | 0.00 | 0.00 | 71 | 1016.0 |
| 20260507005836 | 25 | 326 | 1.6 | 11.3 | 0.00 | 0.00 | 0.00 | 72 | 1016.0 |
| 20260507005333 | 25 | 303 | 6.4 | 16.1 | 0.00 | 0.00 | 0.00 | 73 | 1016.0 |
| 20260507004830 | 25 | 331 | 3.2 | 9.7 | 0.00 | 0.00 | 0.00 | 74 | 1016.0 |
| 20260507004327 | 25 | 277 | 11.3 | 14.5 | 0.00 | 0.00 | 0.00 | 73 | 1016.2 |
| 20260507003824 | 25 | 327 | 8.0 | 14.5 | 0.00 | 0.00 | 0.00 | 73 | 1016.0 |
| 20260507003320 | 25 | 253 | 6.4 | 14.5 | 0.00 | 0.00 | 0.00 | 74 | 1016.4 |
| 20260507002814 | 25 | 27 | 9.7 | 17.7 | 0.00 | 0.00 | 0.00 | 73 | 1016.3 |
| 20260507002311 | 25 | 278 | 11.3 | 16.1 | 0.00 | 0.00 | 0.00 | 73 | 1016.3 |
| 20260507001809 | 25 | 343 | 14.5 | 16.1 | 0.00 | 0.00 | 0.00 | 73 | 1016.4 |
| 20260507001306 | 25 | 304 | 6.4 | 16.1 | 0.00 | 0.00 | 0.00 | 72 | 1016.3 |
| 20260507000802 | 25 | 295 | 6.4 | 12.9 | 0.00 | 0.00 | 0.00 | 72 | 1016.6 |
| 20260507000259 | 25 | 343 | 8.0 | 12.9 | 0.00 | 0.00 | 0.00 | 72 | 1016.5 |
| 20260506235754 | 25 | 276 | 3.2 | 9.7 | 0.00 | 0.00 | 0.00 | 73 | 1016.7 |
| 20260506235250 | 25 | 313 | 9.7 | 14.5 | 0.00 | 0.00 | 0.00 | 72 | 1016.4 |
| 20260506234747 | 25 | 266 | 6.4 | 17.7 | 0.00 | 0.00 | 0.00 | 72 | 1016.6 |
| 20260506234244 | 25 | 292 | 8.0 | 12.9 | 0.00 | 0.00 | 0.00 | 72 | 1016.5 |
| 20260506233742 | 25 | 350 | 9.7 | 16.1 | 0.00 | 0.00 | 0.00 | 72 | 1016.7 |
| 20260506233238 | 26 | 323 | 9.7 | 14.5 | 0.00 | 0.00 | 0.00 | 71 | 1016.6 |
| 20260506232736 | 26 | 308 | 12.9 | 22.5 | 0.00 | 0.00 | 0.00 | 71 | 1016.6 |
| 20260506232236 | 26 | 306 | 12.9 | 20.9 | 0.00 | 0.00 | 0.00 | 72 | 1016.7 |
| 20260506231733 | 26 | 291 | 9.7 | 20.9 | 0.00 | 0.00 | 0.00 | 72 | 1016.6 |
| 20260506231231 | 26 | 335 | 8.0 | 17.7 | 0.00 | 0.00 | 0.00 | 72 | 1016.7 |
| 20260506230728 | 25 | 276 | 9.7 | 20.9 | 0.00 | 0.00 | 0.00 | 72 | 1016.6 |
| 20260506230225 | 25 | 4 | 17.7 | 20.9 | 0.00 | 0.00 | 0.00 | 72 | 1016.6 |
| 20260506225721 | 25 | 291 | 9.7 | 17.7 | 0.00 | 0.00 | 0.00 | 71 | 1016.7 |
| 20260506225219 | 25 | 316 | 17.7 | 22.5 | 0.00 | 0.00 | 0.00 | 72 | 1016.7 |
| 20260506224715 | 25 | 313 | 14.5 | 17.7 | 0.00 | 0.00 | 0.00 | 73 | 1016.8 |
| 20260506224212 | 25 | 326 | 14.5 | 20.9 | 0.00 | 0.00 | 0.00 | 73 | 1016.9 |
| 20260506223708 | 25 | 2 | 9.7 | 20.9 | 0.00 | 0.00 | 0.00 | 73 | 1016.8 |
| 20260506223204 | 26 | 307 | 9.7 | 17.7 | 0.00 | 0.00 | 0.00 | 73 | 1016.9 |
| 20260506222701 | 26 | 288 | 8.0 | 16.1 | 0.00 | 0.00 | 0.00 | 73 | 1017.1 |
| 20260506222156 | 26 | 307 | 6.4 | 22.5 | 0.00 | 0.00 | 0.00 | 72 | 1016.9 |
| 20260506221655 | 26 | 333 | 9.7 | 16.1 | 0.00 | 0.00 | 0.00 | 72 | 1016.8 |
| 20260506221153 | 26 | 311 | 4.8 | 17.7 | 0.00 | 0.00 | 0.00 | 72 | 1016.9 |
| 20260506220649 | 26 | 341 | 6.4 | 16.1 | 0.00 | 0.00 | 0.00 | 73 | 1016.9 |
| 20260506220144 | 26 | 295 | 11.3 | 20.9 | 0.00 | 0.00 | 0.00 | 72 | 1017.0 |
| 20260506215641 | 26 | 352 | 9.7 | 17.7 | 0.00 | 0.00 | 0.00 | 73 | 1016.9 |
| 20260506215136 | 26 | 350 | 11.3 | 20.9 | 0.00 | 0.00 | 0.00 | 72 | 1016.9 |
| 20260506214634 | 26 | 355 | 9.7 | 20.9 | 0.00 | 0.00 | 0.00 | 73 | 1017.1 |
| 20260506214131 | 26 | 301 | 14.5 | 17.7 | 0.00 | 0.00 | 0.00 | 72 | 1017.3 |
| 20260506213629 | 26 | 280 | 9.7 | 16.1 | 0.00 | 0.00 | 0.00 | 72 | 1017.1 |
| 20260506213126 | 26 | 79 | 6.4 | 12.9 | 0.00 | 0.00 | 0.00 | 72 | 1017.3 |
| 20260506212624 | 26 | 249 | 8.0 | 11.3 | 0.00 | 0.00 | 0.00 | 71 | 1017.1 |
| 20260506212118 | 26 | 293 | 3.2 | 16.1 | 0.00 | 0.00 | 0.00 | 72 | 1017.0 |
| 20260506211614 | 26 | 294 | 9.7 | 12.9 | 0.00 | 0.00 | 0.00 | 71 | 1017.4 |
| 20260506211111 | 27 | 260 | 8.0 | 22.5 | 0.00 | 0.00 | 0.00 | 70 | 1017.3 |
| 20260506210608 | 27 | 44 | 4.8 | 12.9 | 0.00 | 0.00 | 0.00 | 71 | 1017.2 |
| 20260506210104 | 26 | 284 | 4.8 | 12.9 | 0.00 | 0.00 | 0.00 | 72 | 1017.2 |
| 20260506205601 | 26 | 280 | 8.0 | 14.5 | 0.00 | 0.00 | 0.00 | 71 | 1017.2 |
| 20260506205056 | 26 | 277 | 6.4 | 20.9 | 0.00 | 0.00 | 0.00 | 73 | 1017.0 |
| 20260506204555 | 26 | 278 | 6.4 | 16.1 | 0.00 | 0.00 | 0.00 | 74 | 1017.1 |
| 20260506204051 | 26 | 318 | 9.7 | 14.5 | 0.00 | 0.00 | 0.00 | 75 | 1017.3 |
| 20260506203549 | 25 | 330 | 11.3 | 14.5 | 0.00 | 0.00 | 0.00 | 75 | 1017.1 |
| 20260506203046 | 25 | 309 | 6.4 | 16.1 | 0.00 | 0.00 | 0.00 | 75 | 1017.2 |
| 20260506202543 | 25 | 342 | 11.3 | 14.5 | 0.00 | 0.00 | 0.00 | 75 | 1017.3 |
| 20260506202040 | 25 | 54 | 6.4 | 16.1 | 0.00 | 0.00 | 0.00 | 76 | 1017.5 |
| 20260506201537 | 25 | 275 | 11.3 | 20.9 | 0.00 | 0.00 | 0.00 | 76 | 1017.3 |
| 20260506201033 | 25 | 297 | 8.0 | 12.9 | 0.00 | 0.00 | 0.00 | 74 | 1017.2 |
| 20260506200530 | 26 | 313 | 8.0 | 14.5 | 0.00 | 0.00 | 0.00 | 73 | 1017.1 |
| 20260506200027 | 25 | 335 | 8.0 | 12.9 | 0.00 | 0.00 | 0.00 | 74 | 1017.4 |
| 20260506195524 | 25 | 2 | 8.0 | 12.9 | 0.00 | 0.00 | 0.00 | 74 | 1017.2 |
| 20260506195020 | 25 | 2 | 6.4 | 11.3 | 0.00 | 0.00 | 0.00 | 74 | 1017.3 |
| 20260506194518 | 25 | 272 | 9.7 | 14.5 | 0.00 | 0.00 | 0.00 | 74 | 1017.5 |
| 20260506194014 | 25 | 306 | 6.4 | 14.5 | 0.00 | 0.00 | 0.00 | 74 | 1017.4 |
| 20260506193511 | 25 | 255 | 6.4 | 12.9 | 0.00 | 0.00 | 0.00 | 73 | 1017.1 |
| 20260506193008 | 25 | 270 | 4.8 | 11.3 | 0.00 | 0.00 | 0.00 | 75 | 1017.2 |
| 20260506192505 | 25 | 322 | 3.2 | 6.4 | 0.00 | 0.00 | 0.00 | 74 | 1017.3 |
| 20260506192001 | 25 | 294 | 4.8 | 11.3 | 0.00 | 0.00 | 0.00 | 74 | 1017.1 |
| 20260506191458 | 26 | 281 | 4.8 | 9.7 | 0.00 | 0.00 | 0.00 | 74 | 1016.9 |